Bangkok (Don Mueang), Thailand

6:22 PM +07 on December 15, 2017 (GMT +0700)
Bangkok International

Weather History for VTBD - August, 2012

Change the Weather History Date:

Sunday, August 12, 2012

  Actual Average Record
Temperature  
Mean Temperature 84 °F -  
Max Temperature 91 °F 90 °F 96 °F (1996)
Min Temperature 77 °F 77 °F 48 °F (2002)
Cooling Degree Days 19    
Growing Degree Days 34 (Base 50)    
Moisture  
Dew Point 74 °F    
Average Humidity 75    
Maximum Humidity 94    
Minimum Humidity 43    
Precipitation  
Precipitation 0.20 in 0.28 in - ()
Sea Level Pressure  
Sea Level Pressure 29.77 in    
Wind  
Wind Speed 5 mph ()    
Max Wind Speed 23 mph    
Max Gust Speed -    
Visibility 6.1 miles    
Events Rain    
Averages and records for this station are not official NWS values.
T = Trace of Precipitation, MM = Missing Value Source: Averaged Metar Reports

Daily Weather History Graph

Daily Weather History Graph

Search for Another Location

Airport or City:

Trip Planner

Search our weather history database for the weather conditions in past years. The results will help you decide how hot, cold, wet, or windy it might be!

Date:

Astronomy

Aug. 12, 2012 Rise Set
Actual Time 6:03 AM +07 6:41 PM +07
Civil Twilight 5:41 AM +07 7:03 PM +07
Nautical Twilight 5:15 AM +07 7:29 PM +07
Astronomical Twilight 4:49 AM +07 7:55 PM +07
Moon 1:10 AM +07 (8/12) 2:20 PM +07 (8/12)
Length of Visible Light 13h 21m
Length of Day
12h 37m
Waning Crescent, 28% of the Moon is Illuminated
Aug 12
Waning Crescent
Aug 17
New
Aug 24
First Quarter
Aug 31
Full
Sep 8
Last Quarter

Hourly Weather History & Observations

Time (+07) Temp. Heat Index Dew Point Humidity Pressure Visibility Wind Dir Wind Speed Gust Speed Precip Events Conditions
12:00 AM 84.2 °F 94.1 °F 77.0 °F 79% 29.83 in 6.2 mi Calm Calm - N/A   Mostly Cloudy
12:30 AM 84.2 °F 94.1 °F 77.0 °F 79% 29.83 in 6.2 mi Calm Calm - N/A   Mostly Cloudy
1:00 AM 85 °F - 77 °F 72% 29.82 in 6 mi WNW 3.5 mph - -   Scattered Clouds
1:00 AM 84.2 °F 94.1 °F 77.0 °F 79% 29.80 in 6.2 mi Calm Calm - N/A   Mostly Cloudy
1:30 AM 84.2 °F 94.1 °F 77.0 °F 79% 29.80 in 6.2 mi Calm Calm - N/A   Mostly Cloudy
2:00 AM 84.2 °F 94.1 °F 77.0 °F 79% 29.80 in 6.2 mi West 3.5 mph - N/A   Mostly Cloudy
2:30 AM 84.2 °F 94.1 °F 77.0 °F 79% 29.77 in 6.2 mi West 5.8 mph - N/A   Mostly Cloudy
3:00 AM 84.2 °F 94.1 °F 77.0 °F 79% 29.77 in 6.2 mi SW 4.6 mph - N/A   Mostly Cloudy
3:30 AM 82.4 °F 89.5 °F 75.2 °F 79% 29.77 in 6.2 mi WSW 6.9 mph - N/A   Mostly Cloudy
4:00 AM 82.4 °F 89.5 °F 75.2 °F 79% 29.77 in 6.2 mi WSW 4.6 mph - N/A   Mostly Cloudy
4:30 AM 82.4 °F 89.5 °F 75.2 °F 79% 29.77 in 6.2 mi SW 4.6 mph - N/A   Mostly Cloudy
5:00 AM 82.4 °F 89.5 °F 75.2 °F 79% 29.77 in 6.2 mi SW 3.5 mph - N/A   Mostly Cloudy
5:30 AM 82.4 °F 89.5 °F 75.2 °F 79% 29.74 in 6.2 mi SW 6.9 mph - N/A   Mostly Cloudy
6:00 AM 80.6 °F 86.2 °F 75.2 °F 84% 29.77 in 6.2 mi WSW 5.8 mph - N/A   Mostly Cloudy
6:30 AM 80.6 °F 86.2 °F 75.2 °F 84% 29.77 in 6.2 mi WSW 3.5 mph - N/A   Mostly Cloudy
7:00 AM 80 °F - 74 °F 77% 29.79 in 6 mi WSW 3.5 mph - -   Scattered Clouds
7:00 AM 80.6 °F 85.4 °F 73.4 °F 79% 29.77 in 6.2 mi SW 6.9 mph - N/A   Mostly Cloudy
7:30 AM 80.6 °F 85.4 °F 73.4 °F 79% 29.80 in 6.2 mi SW 3.5 mph - N/A   Mostly Cloudy
8:00 AM 80.6 °F 85.4 °F 73.4 °F 79% 29.80 in 6.2 mi SW 5.8 mph - N/A   Mostly Cloudy
8:30 AM 80.6 °F 85.4 °F 73.4 °F 79% 29.80 in 6.2 mi WSW 8.1 mph - N/A   Mostly Cloudy
9:00 AM 84.2 °F 90.9 °F 73.4 °F 70% 29.83 in 6.2 mi WSW 5.8 mph - N/A   Mostly Cloudy
9:30 AM 84.2 °F 89.6 °F 71.6 °F 66% 29.80 in 6.2 mi SW 11.5 mph - N/A   Mostly Cloudy
10:00 AM 87.8 °F 93.8 °F 71.6 °F 58% 29.80 in 6.2 mi WSW 5.8 mph - N/A   Mostly Cloudy
10:30 AM 89.6 °F 98.2 °F 73.4 °F 59% 29.80 in 6.2 mi SSW 11.5 mph - N/A   Mostly Cloudy
11:00 AM 89.6 °F 98.2 °F 73.4 °F 59% 29.80 in 6.2 mi WSW 6.9 mph - N/A   Mostly Cloudy
12:00 PM 91.4 °F 98.4 °F 71.6 °F 52% 29.77 in 6.2 mi West 10.4 mph - N/A   Mostly Cloudy
1:00 PM 92 °F - 72 °F 43% 29.78 in 6 mi West 11.5 mph - -   Scattered Clouds
1:30 PM 91.4 °F 98.4 °F 71.6 °F 52% 29.74 in 6.2 mi WNW 15.0 mph - N/A   Mostly Cloudy
2:00 PM 91.4 °F 100.1 °F 73.4 °F 55% 29.74 in 6.2 mi West 6.9 mph - N/A   Mostly Cloudy
2:30 PM 91.4 °F 100.1 °F 73.4 °F 55% 29.74 in 6.2 mi WSW 6.9 mph - N/A   Mostly Cloudy
3:00 PM 91.4 °F 100.1 °F 73.4 °F 55% 29.71 in 6.2 mi WSW 8.1 mph - N/A   Mostly Cloudy
3:30 PM 91.4 °F 100.1 °F 73.4 °F 55% 29.71 in 6.2 mi WSW 8.1 mph - N/A   Mostly Cloudy
4:00 PM 91.4 °F 100.1 °F 73.4 °F 55% 29.71 in 5.0 mi West 23.0 mph - N/A Rain Light Rain
4:30 PM 78.8 °F - 75.2 °F 89% 29.74 in 5.6 mi WSW 11.5 mph - N/A Rain Light Rain
5:00 PM 77.0 °F - 75.2 °F 94% 29.71 in 6.2 mi SW 9.2 mph - N/A Rain Light Rain
5:30 PM 77.0 °F - 75.2 °F 94% 29.71 in 6.2 mi SW 10.4 mph - N/A Rain Light Rain
6:00 PM 77.0 °F - 73.4 °F 89% 29.74 in 6.2 mi SW 8.1 mph - N/A Rain Light Rain
6:30 PM 77.0 °F - 73.4 °F 89% 29.74 in 6.2 mi WSW 6.9 mph - N/A Rain Light Rain
7:00 PM 78 °F - 74 °F 84% 29.75 in 6 mi WSW 6.9 mph - - Rain Light Rain
7:00 PM 77.0 °F - 73.4 °F 89% 29.74 in 6.2 mi WSW 6.9 mph - N/A Rain Light Rain
7:30 PM 78.8 °F - 73.4 °F 83% 29.74 in 6.2 mi WSW 8.1 mph - N/A   Mostly Cloudy
8:00 PM 78.8 °F - 73.4 °F 83% 29.77 in 6.2 mi WSW 6.9 mph - N/A   Mostly Cloudy
8:30 PM 78.8 °F - 73.4 °F 83% 29.77 in 6.2 mi WSW 6.9 mph - N/A   Mostly Cloudy
9:00 PM 78.8 °F - 73.4 °F 83% 29.77 in 6.2 mi SW 9.2 mph - N/A   Mostly Cloudy
9:30 PM 78.8 °F - 73.4 °F 83% 29.77 in 6.2 mi SW 8.1 mph - N/A   Mostly Cloudy
10:00 PM 78.8 °F - 73.4 °F 83% 29.77 in 6.2 mi WSW 4.6 mph - N/A   Mostly Cloudy
10:30 PM 78.8 °F - 73.4 °F 83% 29.77 in 6.2 mi WSW 5.8 mph - N/A   Mostly Cloudy
11:00 PM 78.8 °F - 73.4 °F 83% 29.77 in 6.2 mi WSW 5.8 mph - N/A   Mostly Cloudy
11:30 PM 78.8 °F - 73.4 °F 83% 29.77 in 6.2 mi WSW 4.6 mph - N/A   Mostly Cloudy